Regional Weather Roundup
Issued by NWS Kansas City/Pleasant Hill, MO

Home | Current Version | Previous Version | Graphics & Text | Print | Product List | Glossary Off
Versions: 1 2 3 4 5 6 7 8 9 10 11 12 13 14 15 16 17 18 19 20 21 22 23 24 25 26 27

000
ASUS43 KEAX 250010
RWREAX

WEATHER ROUNDUP FOR EASTERN KANSAS AND NORTHWEST MISSOURI
NATIONAL WEATHER SERVICE KANSAS CITY/PLEASANT HILL MO
600 PM CST FRI NOV 24 2017

KSZ040-057-103>105-MOZ028-029-037-043-250100-
...KANSAS CITY METROPOLITAN AREA...

CITY           SKY/WX    TMP DP  RH WIND       PRES   REMARKS
K.C. INTL      MOCLDY    66  42  41 N15G26    29.69R
6HR MIN TEMP:  66; 6HR MAX TEMP:  72;

K.C. DOWNTOWN  CLEAR     69  41  36 NW16      29.66R
6HR MIN TEMP:  63; 6HR MAX TEMP:  74;

LEES SUMMIT    PTCLDY    65  40  39 SW7       29.66R
6HR MIN TEMP:  63; 6HR MAX TEMP:  74;

OLATHE - IXD   CLOUDY    67  42  40 NW15      29.70R
6HR MIN TEMP:  63; 6HR MAX TEMP:  73;

OLATHE - OJC   PTCLDY    66  41  40 W10       29.67R
6HR MIN TEMP:  63; 6HR MAX TEMP:  72;

LAWRENCE       PTCLDY    67  41  38 NW22G31   29.70R

$$

MOZ001>008-011>017-020>025-030>033-038>040-044>046-053-054-250100-
...NORTHERN AND CENTRAL MISSOURI...

CITY           SKY/WX    TMP DP  RH WIND       PRES   REMARKS
ST. JOSEPH     PTCLDY    61  41  47 N12       29.70R
6HR MIN TEMP:  61; 6HR MAX TEMP:  75;

MOSBY          PTCLDY    66  37  34 N16       29.68R
WARRENSBURG    CLOUDY    64  37  36 SW10      29.63R
WHITEMAN AFB   CLOUDY    67  38  35 SW13      29.60R
6HR MIN TEMP:  67; 6HR MAX TEMP:  74;

CLINTON        PTCLDY    66  39  37 MISG      29.67R
SEDALIA        PTCLDY    70  41  34 SW15G23   29.65R
6HR MIN TEMP:  68; 6HR MAX TEMP:  76; 6HR PCP: TRACE;

WARSAW         NOT AVBL
CHILLICOTHE      N/A     66  43  43 N9G23     29.66R
6HR MIN TEMP:  66; 6HR MAX TEMP:  75;

KIRKSVILLE     CLOUDY    65  40  39 W13       29.61R
6HR MIN TEMP:  65; 6HR MAX TEMP:  73;


$$

MOZ041-047>049-056>058-063>065-088>090-097-250100-
...EASTERN AND SOUTHERN MISSOURI...

CITY           SKY/WX    TMP DP  RH WIND       PRES   REMARKS
ST. LOUIS INTL MOCLDY    66  36  32 S12       29.62R
6HR MIN TEMP:  65; 6HR MAX TEMP:  74;

SPIRIT OF STL  PTCLDY    69  35  28 SW9       29.61R
COLUMBIA       PTCLDY    63  37  38 SW12      29.63R
JEFFERSON CITY MOCLDY    69  36  29 SW8       29.63R
ROLLA          CLOUDY    66  36  32 SW15G25   29.67R
OSAGE BEACH    CLOUDY    65  37  35 S7        29.67
SPRINGFIELD    CLOUDY    64  36  35 SW10      29.72R
BRANSON        MOCLDY    64  32  29 S10G17    29.76S
JOPLIN         PTCLDY    66  38  35 SW6       29.73R
WEST PLAINS    MOCLDY    64  33  31 S10       29.76R

$$

IAZ060-094-KSZ022-034>040-054-083-096-NEZ052-066-093-250100-
...KANSAS...SOUTHEAST NEBRASKA AND IOWA...

CITY           SKY/WX    TMP DP  RH WIND       PRES   REMARKS
TOPEKA         CLOUDY    66  42  41 N22G29    29.72R
6HR MIN TEMP:  66; 6HR MAX TEMP:  79;

MANHATTAN      CLOUDY    67  40  37 N8        29.77R
EMPORIA        PTCLDY    67  39  35 W7        29.71R
CHANUTE        PTCLDY    60  40  47 S8        29.70R
WICHITA        MOCLDY    64  41  42 NW9       29.74R
OMAHA          PTCLDY    59  38  45 NW22      29.74R
LINCOLN        CLEAR     61  34  36 NW20      29.79R
FALLS CITY     CLEAR     59  38  45 NW6       29.71R
LAMONI         CLEAR     56  40  55 NW8       29.66R
DES MOINES     CLOUDY    62  38  40 NW20G29   29.63R

$$





USA.gov is the U.S. government's official web portal to all federal, state and local government web resources and services.